Temperatura - Umidità - Pioggia orarie del 29-03-2020

Intensità - Direzione vento orarie del 29-03-2020

Dati orari da stazione meteo del 29-03-2020

Nome Stazione Data Ora Temperatura [°C] Umidità [%] Pioggia [mm] Intensità vento[km/h] Direzione vento [°]
Savigliano 28-03-2020 01:00 6.8 84.6 0 0.4 132
Savigliano 28-03-2020 02:00 6.7 87.5 0 2.2 273
Savigliano 28-03-2020 03:00 6.4 91.5 0 0.4 273
Savigliano 28-03-2020 04:00 5 89.8 0 1.1 180
Savigliano 28-03-2020 05:00 4.8 91.1 0 0.7 152
Savigliano 28-03-2020 06:00 4.7 90.7 0 1.1 141
Savigliano 28-03-2020 07:00 4.9 90.6 0 1.1 159
Savigliano 28-03-2020 08:00 7.1 85.9 0 1.4 192
Savigliano 28-03-2020 09:00 8.8 80.7 0 0.4 192
Savigliano 28-03-2020 10:00 12.2 68.1 0 1.1 163
Savigliano 28-03-2020 11:00 14.8 58.1 0 2.2 140
Savigliano 28-03-2020 12:00 14.7 51.2 0 3.6 118
Savigliano 28-03-2020 13:00 16.1 44 0 1.8 144
Savigliano 28-03-2020 14:00 17.2 44.3 0 2.5 206
Savigliano 28-03-2020 15:00 17.4 45 0 2.9 126
Savigliano 28-03-2020 16:00 17.4 44.2 0 2.9 131
Savigliano 28-03-2020 17:00 17 38.3 0 2.9 152
Savigliano 28-03-2020 18:00 17.4 44.1 0 1.4 137
Savigliano 28-03-2020 19:00 15.4 48.4 0 0.7 132
Savigliano 28-03-2020 20:00 13 58.9 0 0 132
Savigliano 28-03-2020 21:00 11.9 65.2 0 0.7 152
Savigliano 28-03-2020 22:00 10.1 67.8 0 1.4 193
Savigliano 28-03-2020 23:00 7 80.1 0 0.4 141
Savigliano 29-03-2020 00:00 6.7 85.1 0 2.9 166
Savigliano 29-03-2020 01:00 7 80.1 0 2.5 185
Savigliano 29-03-2020 03:00 6.2 80.2 0 1.4 179
Savigliano 29-03-2020 05:00 4.3 85.1 0 1.8 161

Riassuntivo giornaliero del 29-03-2020